Time,TemperatureF,DewpointF,PressureIn,WindDirection,WindDirectionDegrees,WindSpeedMPH,WindSpeedGustMPH,Humidity,HourlyPrecipIn,Conditions,Clouds,dailyrainin,SolarRadiationWatts/m^2,SoftwareType,DateUTC
2013-04-10 00:00:00,70.8,55.3,29.86,South,190,0.0,3.0,58,0.00,,,0.00,0.00,VWS V14.01,2013-04-10 04:00:00,
2013-04-10 00:05:00,70.6,55.1,29.86,South,188,0.0,0.0,58,0.00,,,0.00,0.00,VWS V14.01,2013-04-10 04:05:00,
2013-04-10 00:11:00,70.4,54.9,29.85,South,188,0.0,0.0,58,0.00,,,0.00,0.00,VWS V14.01,2013-04-10 04:11:00,
2013-04-10 00:16:00,70.1,55.1,29.85,South,188,0.0,0.0,59,0.00,,,0.00,0.00,VWS V14.01,2013-04-10 04:16:00,
2013-04-10 00:21:00,69.7,54.8,29.85,South,188,0.0,0.0,59,0.00,,,0.00,0.00,VWS V14.01,2013-04-10 04:21:00,
2013-04-10 00:26:00,69.4,54.9,29.85,South,188,0.0,2.0,60,0.00,,,0.00,0.00,VWS V14.01,2013-04-10 04:26:00,
2013-04-10 00:31:00,69.0,55.0,29.86,SSW,200,0.0,2.0,61,0.00,,,0.00,0.00,VWS V14.01,2013-04-10 04:31:00,
2013-04-10 00:37:00,68.7,54.7,29.86,SSW,202,0.0,1.0,61,0.00,,,0.00,0.00,VWS V14.01,2013-04-10 04:37:00,
2013-04-10 00:42:00,68.5,55.0,29.86,SSW,202,2.0,2.0,62,0.00,,,0.00,0.00,VWS V14.01,2013-04-10 04:42:00,
2013-04-10 00:47:00,68.3,54.8,29.86,SSW,201,0.0,0.0,62,0.00,,,0.00,0.00,VWS V14.01,2013-04-10 04:47:00,
2013-04-10 00:52:00,68.0,54.5,29.86,South,190,0.0,1.0,62,0.00,,,0.00,0.00,VWS V14.01,2013-04-10 04:52:00,
2013-04-10 00:57:00,67.9,54.8,29.86,SSW,200,3.0,4.0,63,0.00,,,0.00,0.00,VWS V14.01,2013-04-10 04:57:00,
2013-04-10 01:02:00,67.7,54.7,29.86,SSW,194,1.0,4.0,63,0.00,,,0.00,0.00,VWS V14.01,2013-04-10 05:02:00,
2013-04-10 01:08:00,67.5,54.9,29.86,SSW,192,3.0,5.0,64,0.00,,,0.00,0.00,VWS V14.01,2013-04-10 05:08:00,
2013-04-10 01:13:00,67.4,54.8,29.86,SSW,192,3.0,3.0,64,0.00,,,0.00,0.00,VWS V14.01,2013-04-10 05:13:00,
2013-04-10 01:18:00,67.3,54.7,29.86,SSW,196,0.0,2.0,64,0.00,,,0.00,0.00,VWS V14.01,2013-04-10 05:18:00,
2013-04-10 01:23:00,67.2,54.6,29.86,South,190,0.0,4.0,64,0.00,,,0.00,0.00,VWS V14.01,2013-04-10 05:23:00,
2013-04-10 01:28:00,67.1,54.5,29.86,South,179,3.0,4.0,64,0.00,,,0.00,0.00,VWS V14.01,2013-04-10 05:28:00,
2013-04-10 01:33:00,67.0,54.4,29.86,South,186,0.0,4.0,64,0.00,,,0.00,0.00,VWS V14.01,2013-04-10 05:33:00,
2013-04-10 01:38:00,66.8,54.7,29.86,South,191,0.0,1.0,65,0.00,,,0.00,0.00,VWS V14.01,2013-04-10 05:38:00,
2013-04-10 01:43:00,66.7,54.6,29.86,SSW,192,0.0,1.0,65,0.00,,,0.00,0.00,VWS V14.01,2013-04-10 05:43:00,
2013-04-10 01:48:00,66.6,54.5,29.86,South,191,0.0,1.0,65,0.00,,,0.00,0.00,VWS V14.01,2013-04-10 05:48:00,
2013-04-10 01:53:00,66.5,54.4,29.86,South,191,0.0,1.0,65,0.00,,,0.00,0.00,VWS V14.01,2013-04-10 05:53:00,
2013-04-10 01:59:00,66.4,54.3,29.86,SSW,192,0.0,2.0,65,0.00,,,0.00,0.00,VWS V14.01,2013-04-10 05:59:00,
2013-04-10 02:04:00,66.3,54.2,29.86,South,191,0.0,1.0,65,0.00,,,0.00,0.00,VWS V14.01,2013-04-10 06:04:00,
2013-04-10 02:09:00,66.2,54.1,29.86,SSW,192,0.0,1.0,65,0.00,,,0.00,0.00,VWS V14.01,2013-04-10 06:09:00,
2013-04-10 02:14:00,66.1,54.4,29.86,SSW,192,0.0,1.0,66,0.00,,,0.00,0.00,VWS V14.01,2013-04-10 06:14:00,
2013-04-10 02:19:00,66.0,54.3,29.86,SSW,192,0.0,1.0,66,0.00,,,0.00,0.00,VWS V14.01,2013-04-10 06:19:00,
2013-04-10 02:24:00,65.9,54.2,29.86,SSW,192,0.0,2.0,66,0.00,,,0.00,0.00,VWS V14.01,2013-04-10 06:24:00,
2013-04-10 02:29:00,65.8,54.1,29.85,South,189,0.0,1.0,66,0.00,,,0.00,0.00,VWS V14.01,2013-04-10 06:29:00,
2013-04-10 02:34:00,65.7,54.0,29.86,South,189,0.0,0.0,66,0.00,,,0.00,0.00,VWS V14.01,2013-04-10 06:34:00,
2013-04-10 02:39:00,65.6,54.0,29.86,South,189,0.0,1.0,66,0.00,,,0.00,0.00,VWS V14.01,2013-04-10 06:39:00,
2013-04-10 02:44:00,65.5,53.8,29.86,South,188,0.0,0.0,66,0.00,,,0.00,0.00,VWS V14.01,2013-04-10 06:44:00,
2013-04-10 02:49:00,65.4,53.8,29.86,South,189,0.0,0.0,66,0.00,,,0.00,0.00,VWS V14.01,2013-04-10 06:49:00,
2013-04-10 02:54:00,65.4,54.2,29.86,South,188,0.0,1.0,67,0.00,,,0.00,0.00,VWS V14.01,2013-04-10 06:54:00,
2013-04-10 02:59:00,65.3,54.1,29.86,South,188,0.0,0.0,67,0.00,,,0.00,0.00,VWS V14.01,2013-04-10 06:59:00,
2013-04-10 03:04:00,65.2,54.0,29.86,South,188,0.0,0.0,67,0.00,,,0.00,0.00,VWS V14.01,2013-04-10 07:04:00,
2013-04-10 03:09:00,65.0,53.8,29.86,South,189,0.0,0.0,67,0.00,,,0.00,0.00,VWS V14.01,2013-04-10 07:09:00,
2013-04-10 03:15:00,64.8,53.6,29.86,South,188,0.0,1.0,67,0.00,,,0.00,0.00,VWS V14.01,2013-04-10 07:15:00,
2013-04-10 06:04:00,66.6,53.2,29.89,SSW,202,0.0,0.0,62,0.00,,,0.00,0.00,VWS V14.01,2013-04-10 10:04:00,
2013-04-10 06:09:00,66.9,53.0,29.90,SSW,213,0.0,1.0,61,0.00,,,0.00,0.00,VWS V14.01,2013-04-10 10:09:00,
2013-04-10 06:15:00,66.5,53.1,29.90,SSE,156,0.0,0.0,62,0.00,,,0.00,0.00,VWS V14.01,2013-04-10 10:15:00,
2013-04-10 06:21:00,66.0,53.1,29.90,South,173,1.0,1.0,63,0.00,,,0.00,0.00,VWS V14.01,2013-04-10 10:21:00,
2013-04-10 06:26:00,65.5,53.4,29.90,South,172,0.0,2.0,65,0.00,,,0.00,0.00,VWS V14.01,2013-04-10 10:26:00,
2013-04-10 06:31:00,65.4,53.3,29.90,South,176,0.0,1.0,65,0.00,,,0.00,0.00,VWS V14.01,2013-04-10 10:31:00,
2013-04-10 06:36:00,65.3,53.2,29.91,SSW,198,1.0,1.0,65,0.00,,,0.00,0.00,VWS V14.01,2013-04-10 10:36:00,
2013-04-10 06:41:00,65.2,53.2,29.91,SSW,198,0.0,2.0,65,0.00,,,0.00,0.00,VWS V14.01,2013-04-10 10:41:00,
2013-04-10 06:46:00,65.1,53.5,29.91,South,180,0.0,3.0,66,0.00,,,0.00,5.00,VWS V14.01,2013-04-10 10:46:00,
2013-04-10 06:52:00,64.9,53.7,29.91,SSW,194,3.0,3.0,67,0.00,,,0.00,9.00,VWS V14.01,2013-04-10 10:52:00,
2013-04-10 06:57:00,64.7,53.5,29.91,South,181,0.0,2.0,67,0.00,,,0.00,14.00,VWS V14.01,2013-04-10 10:57:00,
2013-04-10 07:02:00,64.4,53.2,29.91,SSW,192,0.0,2.0,67,0.00,,,0.00,21.00,VWS V14.01,2013-04-10 11:02:00,
2013-04-10 07:07:00,64.0,53.2,29.91,South,179,0.0,1.0,68,0.00,,,0.00,25.00,VWS V14.01,2013-04-10 11:07:00,
2013-04-10 07:12:00,63.6,53.3,29.91,South,186,0.0,0.0,69,0.00,,,0.00,30.00,VWS V14.01,2013-04-10 11:12:00,
2013-04-10 07:17:00,63.4,53.5,29.91,South,175,0.0,3.0,70,0.00,,,0.00,35.00,VWS V14.01,2013-04-10 11:17:00,
2013-04-10 07:22:00,63.2,53.3,29.91,South,175,0.0,1.0,70,0.00,,,0.00,44.00,VWS V14.01,2013-04-10 11:22:00,
2013-04-10 07:27:00,63.1,53.2,29.92,South,175,0.0,0.0,70,0.00,,,0.00,44.00,VWS V14.01,2013-04-10 11:27:00,
2013-04-10 07:32:00,63.1,53.2,29.92,South,171,2.0,4.0,70,0.00,,,0.00,46.00,VWS V14.01,2013-04-10 11:32:00,
2013-04-10 07:37:00,63.2,53.3,29.92,South,177,2.0,4.0,70,0.00,,,0.00,49.00,VWS V14.01,2013-04-10 11:37:00,
2013-04-10 07:42:00,63.4,53.5,29.91,South,184,2.0,4.0,70,0.00,,,0.00,53.00,VWS V14.01,2013-04-10 11:42:00,
2013-04-10 07:47:00,63.7,53.7,29.91,South,178,0.0,3.0,70,0.00,,,0.00,58.00,VWS V14.01,2013-04-10 11:47:00,
2013-04-10 07:52:00,64.0,54.0,29.91,South,187,2.0,3.0,70,0.00,,,0.00,62.00,VWS V14.01,2013-04-10 11:52:00,
2013-04-10 07:58:00,64.3,53.9,29.91,South,182,1.0,1.0,69,0.00,,,0.00,67.00,VWS V14.01,2013-04-10 11:58:00,
2013-04-10 08:03:00,64.7,54.3,29.91,South,172,1.0,2.0,69,0.00,,,0.00,76.00,VWS V14.01,2013-04-10 12:03:00,
2013-04-10 08:08:00,65.1,54.3,29.91,South,173,1.0,3.0,68,0.00,,,0.00,105.00,VWS V14.01,2013-04-10 12:08:00,
2013-04-10 08:13:00,65.8,55.0,29.91,South,186,0.0,2.0,68,0.00,,,0.00,149.00,VWS V14.01,2013-04-10 12:13:00,
2013-04-10 08:18:00,66.7,55.0,29.91,SW,219,0.0,5.0,66,0.00,,,0.00,171.00,VWS V14.01,2013-04-10 12:18:00,
2013-04-10 08:23:00,67.3,55.2,29.91,SSW,200,3.0,6.0,65,0.00,,,0.00,118.00,VWS V14.01,2013-04-10 12:23:00,
2013-04-10 08:28:00,67.8,54.8,29.92,SSW,204,4.0,8.0,63,0.00,,,0.00,190.00,VWS V14.01,2013-04-10 12:28:00,
2013-04-10 08:33:00,68.3,55.2,29.92,SSW,196,3.0,6.0,63,0.00,,,0.00,209.00,VWS V14.01,2013-04-10 12:33:00,
2013-04-10 08:38:00,68.8,55.3,29.92,South,191,4.0,7.0,62,0.00,,,0.00,225.00,VWS V14.01,2013-04-10 12:38:00,
2013-04-10 08:43:00,69.3,56.2,29.92,South,182,1.0,7.0,63,0.00,,,0.00,253.00,VWS V14.01,2013-04-10 12:43:00,
2013-04-10 08:48:00,69.9,56.8,29.92,SSW,200,4.0,6.0,63,0.00,,,0.00,290.00,VWS V14.01,2013-04-10 12:48:00,
2013-04-10 08:53:00,70.4,56.3,29.91,SSE,167,3.0,7.0,61,0.00,,,0.00,258.00,VWS V14.01,2013-04-10 12:53:00,
2013-04-10 08:58:00,70.9,57.2,29.91,South,190,1.0,4.0,62,0.00,,,0.00,250.00,VWS V14.01,2013-04-10 12:58:00,
2013-04-10 09:03:00,71.2,57.1,29.91,SE,144,3.0,6.0,61,0.00,,,0.00,195.00,VWS V14.01,2013-04-10 13:03:00,
2013-04-10 09:09:00,71.5,57.4,29.90,South,180,0.0,4.0,61,0.00,,,0.00,264.00,VWS V14.01,2013-04-10 13:09:00,
2013-04-10 09:14:00,71.9,57.7,29.91,SSW,195,0.0,5.0,61,0.00,,,0.00,325.00,VWS V14.01,2013-04-10 13:14:00,
2013-04-10 09:19:00,72.5,57.4,29.91,South,183,0.0,3.0,59,0.00,,,0.00,339.00,VWS V14.01,2013-04-10 13:19:00,
2013-04-10 09:24:00,73.3,58.1,29.91,SSW,194,2.0,4.0,59,0.00,,,0.00,334.00,VWS V14.01,2013-04-10 13:24:00,
2013-04-10 09:29:00,73.8,58.6,29.91,SSW,194,0.0,5.0,59,0.00,,,0.00,343.00,VWS V14.01,2013-04-10 13:29:00,
2013-04-10 09:34:00,74.4,59.2,29.91,SSW,194,0.0,2.0,59,0.00,,,0.00,364.00,VWS V14.01,2013-04-10 13:34:00,
2013-04-10 09:39:00,75.6,59.8,29.90,WSW,256,5.0,7.0,58,0.00,,,0.00,371.00,VWS V14.01,2013-04-10 13:39:00,
2013-04-10 09:44:00,77.0,59.6,29.90,NW,326,0.0,9.0,55,0.00,,,0.00,355.00,VWS V14.01,2013-04-10 13:44:00,
2013-04-10 09:50:00,78.2,60.2,29.90,SW,225,0.0,8.0,54,0.00,,,0.00,359.00,VWS V14.01,2013-04-10 13:50:00,
2013-04-10 09:55:00,78.7,60.2,29.90,WSW,246,7.0,12.0,53,0.00,,,0.00,350.00,VWS V14.01,2013-04-10 13:55:00,
2013-04-10 10:00:00,79.0,59.9,29.90,SW,225,4.0,10.0,52,0.00,,,0.00,381.00,VWS V14.01,2013-04-10 14:00:00,
2013-04-10 10:05:00,79.5,60.9,29.90,SSW,211,13.0,13.0,53,0.00,,,0.00,381.00,VWS V14.01,2013-04-10 14:05:00,
2013-04-10 10:10:00,79.8,60.6,29.90,West,271,2.0,14.0,52,0.00,,,0.00,406.00,VWS V14.01,2013-04-10 14:10:00,
2013-04-10 10:15:00,80.1,61.4,29.90,WSW,252,8.0,8.0,53,0.00,,,0.00,410.00,VWS V14.01,2013-04-10 14:15:00,
2013-04-10 10:20:00,80.5,62.3,29.90,SSW,213,6.0,8.0,54,0.00,,,0.00,439.00,VWS V14.01,2013-04-10 14:20:00,
2013-04-10 10:25:00,80.5,60.2,29.89,NW,317,3.0,12.0,50,0.00,,,0.00,459.00,VWS V14.01,2013-04-10 14:25:00,
2013-04-10 10:30:00,80.7,60.9,29.89,WSW,243,3.0,11.0,51,0.00,,,0.00,487.00,VWS V14.01,2013-04-10 14:30:00,
2013-04-10 10:35:00,80.7,60.3,29.89,SW,233,1.0,11.0,50,0.00,,,0.00,534.00,VWS V14.01,2013-04-10 14:35:00,
2013-04-10 10:40:00,80.9,61.6,29.89,SSW,198,5.0,12.0,52,0.00,,,0.00,548.00,VWS V14.01,2013-04-10 14:40:00,
2013-04-10 10:45:00,81.3,62.0,29.89,WSW,245,1.0,10.0,52,0.00,,,0.00,585.00,VWS V14.01,2013-04-10 14:45:00,
2013-04-10 10:50:00,81.5,61.1,29.89,West,275,6.0,15.0,50,0.00,,,0.00,612.00,VWS V14.01,2013-04-10 14:50:00,
2013-04-10 10:55:00,81.5,61.7,29.89,WSW,257,1.0,11.0,51,0.00,,,0.00,642.00,VWS V14.01,2013-04-10 14:55:00,
2013-04-10 11:00:00,81.8,61.4,29.89,NW,306,0.0,2.0,50,0.00,,,0.00,636.00,VWS V14.01,2013-04-10 15:00:00,
2013-04-10 11:05:00,82.0,62.1,29.89,WSW,246,0.0,3.0,51,0.00,,,0.00,153.00,VWS V14.01,2013-04-10 15:05:00,
2013-04-10 11:10:00,82.1,62.2,29.89,WSW,248,1.0,4.0,51,0.00,,,0.00,652.00,VWS V14.01,2013-04-10 15:10:00,
2013-04-10 11:16:00,82.4,61.9,29.89,WNW,292,3.0,4.0,50,0.00,,,0.00,591.00,VWS V14.01,2013-04-10 15:16:00,
2013-04-10 11:21:00,82.9,62.9,29.89,NNW,330,5.0,6.0,51,0.00,,,0.00,703.00,VWS V14.01,2013-04-10 15:21:00,
2013-04-10 11:26:00,83.3,62.2,29.89,NNW,344,0.0,5.0,49,0.00,,,0.00,169.00,VWS V14.01,2013-04-10 15:26:00,
2013-04-10 11:31:00,83.3,62.7,29.89,NNW,333,5.0,11.0,50,0.00,,,0.00,584.00,VWS V14.01,2013-04-10 15:31:00,
2013-04-10 11:36:00,83.5,61.8,29.89,NNW,341,5.0,7.0,48,0.00,,,0.00,557.00,VWS V14.01,2013-04-10 15:36:00,
2013-04-10 11:41:00,83.6,62.4,29.89,NW,317,6.0,10.0,49,0.00,,,0.00,278.00,VWS V14.01,2013-04-10 15:41:00,
2013-04-10 11:47:00,84.1,62.9,29.88,WSW,245,3.0,9.0,49,0.00,,,0.00,735.00,VWS V14.01,2013-04-10 15:47:00,
2013-04-10 11:52:00,84.5,62.7,29.88,NW,324,0.0,4.0,48,0.00,,,0.00,232.00,VWS V14.01,2013-04-10 15:52:00,
2013-04-10 11:57:00,84.7,61.7,29.88,WNW,290,3.0,9.0,46,0.00,,,0.00,789.00,VWS V14.01,2013-04-10 15:57:00,
2013-04-10 12:02:00,84.5,62.7,29.88,NW,310,0.0,1.0,48,0.00,,,0.00,738.00,VWS V14.01,2013-04-10 16:02:00,
2013-04-10 12:07:00,84.6,62.2,29.88,SW,216,10.0,10.0,47,0.00,,,0.00,738.00,VWS V14.01,2013-04-10 16:07:00,
2013-04-10 12:12:00,84.9,62.4,29.88,WSW,253,10.0,10.0,47,0.00,,,0.00,772.00,VWS V14.01,2013-04-10 16:12:00,
2013-04-10 12:17:00,85.1,62.6,29.88,NW,304,4.0,4.0,47,0.00,,,0.00,837.00,VWS V14.01,2013-04-10 16:17:00,
2013-04-10 12:22:00,84.8,62.3,29.87,NNW,333,1.0,5.0,47,0.00,,,0.00,272.00,VWS V14.01,2013-04-10 16:22:00,
2013-04-10 12:27:00,84.4,62.6,29.87,West,273,0.0,4.0,48,0.00,,,0.00,267.00,VWS V14.01,2013-04-10 16:27:00,
2013-04-10 12:32:00,84.2,62.4,29.86,WNW,292,1.0,5.0,48,0.00,,,0.00,737.00,VWS V14.01,2013-04-10 16:32:00,
2013-04-10 12:37:00,85.1,63.8,29.86,SSW,202,7.0,7.0,49,0.00,,,0.00,738.00,VWS V14.01,2013-04-10 16:37:00,
2013-04-10 12:43:00,85.7,62.6,29.86,WSW,253,6.0,11.0,46,0.00,,,0.00,779.00,VWS V14.01,2013-04-10 16:43:00,
2013-04-10 12:48:00,86.0,64.0,29.86,WNW,303,3.0,8.0,48,0.00,,,0.00,772.00,VWS V14.01,2013-04-10 16:48:00,
2013-04-10 12:53:00,86.1,61.7,29.85,WNW,296,0.0,9.0,44,0.00,,,0.00,835.00,VWS V14.01,2013-04-10 16:53:00,
2013-04-10 12:58:00,86.2,62.4,29.85,WSW,254,7.0,9.0,45,0.00,,,0.00,821.00,VWS V14.01,2013-04-10 16:58:00,
2013-04-10 13:03:00,86.5,62.7,29.85,NW,322,3.0,9.0,45,0.00,,,0.00,889.00,VWS V14.01,2013-04-10 17:03:00,
2013-04-10 13:08:00,86.4,64.4,29.85,West,271,1.0,6.0,48,0.00,,,0.00,264.00,VWS V14.01,2013-04-10 17:08:00,
2013-04-10 13:13:00,86.2,62.4,29.85,NW,304,1.0,9.0,45,0.00,,,0.00,227.00,VWS V14.01,2013-04-10 17:13:00,
2013-04-10 13:18:00,86.2,61.8,29.84,SSW,211,6.0,9.0,44,0.00,,,0.00,928.00,VWS V14.01,2013-04-10 17:18:00,
2013-04-10 13:23:00,86.6,61.5,29.84,WSW,238,6.0,9.0,43,0.00,,,0.00,396.00,VWS V14.01,2013-04-10 17:23:00,
2013-04-10 13:28:00,87.1,62.6,29.84,WNW,296,2.0,10.0,44,0.00,,,0.00,893.00,VWS V14.01,2013-04-10 17:28:00,
2013-04-10 13:33:00,87.3,62.7,29.84,WSW,252,5.0,15.0,44,0.00,,,0.00,842.00,VWS V14.01,2013-04-10 17:33:00,
2013-04-10 13:38:00,87.6,61.7,29.84,NNW,330,5.0,10.0,42,0.00,,,0.00,854.00,VWS V14.01,2013-04-10 17:38:00,
2013-04-10 13:43:00,87.7,61.8,29.83,SW,227,5.0,8.0,42,0.00,,,0.00,905.00,VWS V14.01,2013-04-10 17:43:00,
2013-04-10 13:48:00,87.9,62.0,29.84,WSW,248,4.0,8.0,42,0.00,,,0.00,896.00,VWS V14.01,2013-04-10 17:48:00,
2013-04-10 13:54:00,88.0,60.7,29.84,NNW,330,6.0,11.0,40,0.00,,,0.00,942.00,VWS V14.01,2013-04-10 17:54:00,
2013-04-10 13:59:00,87.4,60.8,29.83,SSW,202,0.0,9.0,41,0.00,,,0.00,290.00,VWS V14.01,2013-04-10 17:59:00,
2013-04-10 14:04:00,86.8,60.3,29.83,NW,304,6.0,8.0,41,0.00,,,0.00,346.00,VWS V14.01,2013-04-10 18:04:00,
2013-04-10 14:09:00,87.0,61.2,29.83,NW,304,0.0,11.0,42,0.00,,,0.00,299.00,VWS V14.01,2013-04-10 18:09:00,
2013-04-10 14:14:00,86.7,60.2,29.83,NW,310,5.0,5.0,41,0.00,,,0.00,283.00,VWS V14.01,2013-04-10 18:14:00,
2013-04-10 14:19:00,86.6,60.1,29.83,WNW,293,3.0,11.0,41,0.00,,,0.00,279.00,VWS V14.01,2013-04-10 18:19:00,
2013-04-10 14:24:00,86.5,61.4,29.83,West,259,2.0,7.0,43,0.00,,,0.00,283.00,VWS V14.01,2013-04-10 18:24:00,
2013-04-10 14:29:00,86.7,60.9,29.83,SW,218,4.0,12.0,42,0.00,,,0.00,954.00,VWS V14.01,2013-04-10 18:29:00,
2013-04-10 14:34:00,87.1,61.2,29.83,WSW,238,3.0,7.0,42,0.00,,,0.00,241.00,VWS V14.01,2013-04-10 18:34:00,
2013-04-10 14:39:00,87.7,62.5,29.83,West,271,0.0,5.0,43,0.00,,,0.00,833.00,VWS V14.01,2013-04-10 18:39:00,
2013-04-10 14:44:00,87.8,61.9,29.83,WSW,250,0.0,5.0,42,0.00,,,0.00,802.00,VWS V14.01,2013-04-10 18:44:00,
2013-04-10 14:49:00,88.0,62.7,29.82,WSW,252,1.0,5.0,43,0.00,,,0.00,765.00,VWS V14.01,2013-04-10 18:49:00,
2013-04-10 14:55:00,88.6,61.2,29.81,WNW,295,2.0,9.0,40,0.00,,,0.00,763.00,VWS V14.01,2013-04-10 18:55:00,
2013-04-10 15:00:00,88.8,62.1,29.81,WSW,252,3.0,7.0,41,0.00,,,0.00,705.00,VWS V14.01,2013-04-10 19:00:00,
2013-04-10 15:05:00,88.9,62.2,29.81,West,271,0.0,7.0,41,0.00,,,0.00,742.00,VWS V14.01,2013-04-10 19:05:00,
2013-04-10 15:10:00,89.2,61.0,29.81,SW,221,3.0,9.0,39,0.00,,,0.00,761.00,VWS V14.01,2013-04-10 19:10:00,
2013-04-10 15:15:00,89.3,60.4,29.80,WSW,241,8.0,12.0,38,0.00,,,0.00,237.00,VWS V14.01,2013-04-10 19:15:00,
2013-04-10 15:20:00,88.7,60.6,29.80,SW,217,6.0,12.0,39,0.00,,,0.00,213.00,VWS V14.01,2013-04-10 19:20:00,
2013-04-10 15:25:00,88.3,61.6,29.80,WSW,247,1.0,8.0,41,0.00,,,0.00,735.00,VWS V14.01,2013-04-10 19:25:00,
2013-04-10 15:30:00,88.3,60.9,29.79,South,184,5.0,11.0,40,0.00,,,0.00,348.00,VWS V14.01,2013-04-10 19:30:00,
2013-04-10 15:35:00,88.2,61.5,29.79,West,273,5.0,11.0,41,0.00,,,0.00,638.00,VWS V14.01,2013-04-10 19:35:00,
2013-04-10 15:40:00,88.6,61.2,29.79,West,261,3.0,7.0,40,0.00,,,0.00,306.00,VWS V14.01,2013-04-10 19:40:00,
2013-04-10 15:45:00,88.4,59.6,29.78,WSW,238,2.0,12.0,38,0.00,,,0.00,485.00,VWS V14.01,2013-04-10 19:45:00,
2013-04-10 15:50:00,88.3,62.3,29.78,SW,221,3.0,6.0,42,0.00,,,0.00,355.00,VWS V14.01,2013-04-10 19:50:00,
2013-04-10 15:55:00,88.4,61.7,29.78,SW,232,2.0,6.0,41,0.00,,,0.00,564.00,VWS V14.01,2013-04-10 19:55:00,
2013-04-10 16:01:00,88.8,62.8,29.78,SSW,196,5.0,5.0,42,0.00,,,0.00,585.00,VWS V14.01,2013-04-10 20:01:00,
2013-04-10 16:06:00,89.2,61.0,29.78,SSW,202,3.0,5.0,39,0.00,,,0.00,568.00,VWS V14.01,2013-04-10 20:06:00,
2013-04-10 16:11:00,89.4,60.5,29.78,West,275,4.0,9.0,38,0.00,,,0.00,548.00,VWS V14.01,2013-04-10 20:11:00,
2013-04-10 16:16:00,89.1,60.9,29.78,WSW,253,3.0,3.0,39,0.00,,,0.00,195.00,VWS V14.01,2013-04-10 20:16:00,
2013-04-10 16:21:00,88.5,60.4,29.78,WSW,248,2.0,2.0,39,0.00,,,0.00,279.00,VWS V14.01,2013-04-10 20:21:00,
2013-04-10 16:26:00,88.1,60.0,29.78,SSW,209,2.0,6.0,39,0.00,,,0.00,211.00,VWS V14.01,2013-04-10 20:26:00,
2013-04-10 16:32:00,87.9,59.9,29.78,SSW,209,0.0,5.0,39,0.00,,,0.00,410.00,VWS V14.01,2013-04-10 20:32:00,
2013-04-10 16:37:00,87.9,60.6,29.78,SSW,200,0.0,4.0,40,0.00,,,0.00,323.00,VWS V14.01,2013-04-10 20:37:00,
2013-04-10 16:42:00,88.0,60.7,29.78,SW,234,0.0,1.0,40,0.00,,,0.00,169.00,VWS V14.01,2013-04-10 20:42:00,
2013-04-10 16:47:00,87.7,59.7,29.78,SW,221,2.0,9.0,39,0.00,,,0.00,174.00,VWS V14.01,2013-04-10 20:47:00,
2013-04-10 16:52:00,87.6,59.6,29.77,SW,214,2.0,8.0,39,0.00,,,0.00,174.00,VWS V14.01,2013-04-10 20:52:00,
2013-04-10 16:57:00,87.5,60.2,29.77,WSW,243,0.0,8.0,40,0.00,,,0.00,149.00,VWS V14.01,2013-04-10 20:57:00,
2013-04-10 17:02:00,87.2,60.7,29.77,SW,231,1.0,3.0,41,0.00,,,0.00,302.00,VWS V14.01,2013-04-10 21:02:00,
2013-04-10 17:07:00,87.3,61.4,29.77,SSW,210,0.0,1.0,42,0.00,,,0.00,232.00,VWS V14.01,2013-04-10 21:07:00,
2013-04-10 17:12:00,87.4,60.1,29.76,SW,220,3.0,4.0,40,0.00,,,0.00,234.00,VWS V14.01,2013-04-10 21:12:00,
2013-04-10 17:17:00,87.5,60.2,29.76,SW,225,6.0,7.0,40,0.00,,,0.00,250.00,VWS V14.01,2013-04-10 21:17:00,
2013-04-10 17:22:00,87.5,60.2,29.76,SSW,207,4.0,8.0,40,0.00,,,0.00,227.00,VWS V14.01,2013-04-10 21:22:00,
2013-04-10 17:27:00,87.3,60.8,29.76,SSW,202,3.0,5.0,41,0.00,,,0.00,197.00,VWS V14.01,2013-04-10 21:27:00,
2013-04-10 17:33:00,87.1,60.6,29.75,SSW,198,0.0,7.0,41,0.00,,,0.00,192.00,VWS V14.01,2013-04-10 21:33:00,
2013-04-10 17:38:00,86.9,60.4,29.75,SSW,196,2.0,5.0,41,0.00,,,0.00,183.00,VWS V14.01,2013-04-10 21:38:00,
2013-04-10 17:43:00,86.7,61.5,29.74,SSW,207,0.0,3.0,43,0.00,,,0.00,192.00,VWS V14.01,2013-04-10 21:43:00,
2013-04-10 17:48:00,86.5,60.7,29.74,SSW,202,0.0,5.0,42,0.00,,,0.00,192.00,VWS V14.01,2013-04-10 21:48:00,
2013-04-10 17:53:00,86.3,61.8,29.74,SSW,203,0.0,2.0,44,0.00,,,0.00,199.00,VWS V14.01,2013-04-10 21:53:00,
2013-04-10 17:58:00,86.2,61.8,29.74,SSW,203,0.0,1.0,44,0.00,,,0.00,214.00,VWS V14.01,2013-04-10 21:58:00,
2013-04-10 18:03:00,86.2,61.8,29.73,South,186,0.0,3.0,44,0.00,,,0.00,241.00,VWS V14.01,2013-04-10 22:03:00,
2013-04-10 18:08:00,86.3,62.5,29.73,SSW,199,2.0,3.0,45,0.00,,,0.00,172.00,VWS V14.01,2013-04-10 22:08:00,
2013-04-10 18:13:00,86.1,61.7,29.73,SSW,202,2.0,7.0,44,0.00,,,0.00,167.00,VWS V14.01,2013-04-10 22:13:00,
2013-04-10 18:18:00,86.0,61.6,29.73,South,182,5.0,5.0,44,0.00,,,0.00,169.00,VWS V14.01,2013-04-10 22:18:00,
2013-04-10 18:23:00,85.8,61.4,29.73,SSW,205,6.0,6.0,44,0.00,,,0.00,134.00,VWS V14.01,2013-04-10 22:23:00,
2013-04-10 18:28:00,85.7,61.9,29.73,SSW,207,3.0,5.0,45,0.00,,,0.00,102.00,VWS V14.01,2013-04-10 22:28:00,
2013-04-10 18:33:00,85.6,61.2,29.73,SSW,205,0.0,4.0,44,0.00,,,0.00,86.00,VWS V14.01,2013-04-10 22:33:00,
2013-04-10 18:39:00,85.5,61.1,29.74,SSW,199,0.0,2.0,44,0.00,,,0.00,79.00,VWS V14.01,2013-04-10 22:39:00,
2013-04-10 18:44:00,85.4,61.7,29.73,SSW,198,0.0,0.0,45,0.00,,,0.00,67.00,VWS V14.01,2013-04-10 22:44:00,
2013-04-10 18:49:00,85.2,61.5,29.73,SSW,199,0.0,1.0,45,0.00,,,0.00,54.00,VWS V14.01,2013-04-10 22:49:00,
2013-04-10 18:54:00,85.1,61.4,29.74,SSW,199,0.0,1.0,45,0.00,,,0.00,51.00,VWS V14.01,2013-04-10 22:54:00,
2013-04-10 18:59:00,84.9,61.2,29.73,SSW,198,0.0,2.0,45,0.00,,,0.00,40.00,VWS V14.01,2013-04-10 22:59:00,
2013-04-10 19:04:00,84.7,61.7,29.73,SSW,198,0.0,3.0,46,0.00,,,0.00,33.00,VWS V14.01,2013-04-10 23:04:00,
2013-04-10 19:09:00,84.4,61.4,29.73,SSW,199,2.0,3.0,46,0.00,,,0.00,26.00,VWS V14.01,2013-04-10 23:09:00,
2013-04-10 19:15:00,84.2,61.8,29.73,SSW,199,0.0,1.0,47,0.00,,,0.00,23.00,VWS V14.01,2013-04-10 23:15:00,
2013-04-10 19:20:00,84.0,61.6,29.73,SSW,199,0.0,1.0,47,0.00,,,0.00,19.00,VWS V14.01,2013-04-10 23:20:00,
2013-04-10 19:25:00,83.8,61.4,29.72,SSW,199,0.0,1.0,47,0.00,,,0.00,14.00,VWS V14.01,2013-04-10 23:25:00,
2013-04-10 19:30:00,83.4,61.1,29.72,SSW,198,0.0,2.0,47,0.00,,,0.00,9.00,VWS V14.01,2013-04-10 23:30:00,
2013-04-10 19:35:00,83.0,61.3,29.72,SSW,199,0.0,1.0,48,0.00,,,0.00,5.00,VWS V14.01,2013-04-10 23:35:00,
2013-04-10 19:40:00,82.6,60.9,29.71,SSW,198,0.0,1.0,48,0.00,,,0.00,0.00,VWS V14.01,2013-04-10 23:40:00,
2013-04-10 19:45:00,82.1,60.5,29.71,SSW,198,0.0,1.0,48,0.00,,,0.00,0.00,VWS V14.01,2013-04-10 23:45:00,
2013-04-10 19:50:00,81.8,60.2,29.71,SSW,199,0.0,1.0,48,0.00,,,0.00,0.00,VWS V14.01,2013-04-10 23:50:00,
2013-04-10 19:55:00,81.5,60.5,29.71,SSW,198,0.0,0.0,49,0.00,,,0.00,0.00,VWS V14.01,2013-04-10 23:55:00,
2013-04-10 20:01:00,81.3,59.8,29.72,SSW,199,0.0,0.0,48,0.00,,,0.00,0.00,VWS V14.01,2013-04-11 00:01:00,
2013-04-10 20:06:00,81.1,60.2,29.72,SSW,199,0.0,0.0,49,0.00,,,0.00,0.00,VWS V14.01,2013-04-11 00:06:00,
2013-04-10 20:11:00,80.8,59.9,29.72,SSW,199,0.0,0.0,49,0.00,,,0.00,0.00,VWS V14.01,2013-04-11 00:11:00,
2013-04-10 20:16:00,80.6,59.7,29.72,SSW,199,0.0,0.0,49,0.00,,,0.00,0.00,VWS V14.01,2013-04-11 00:16:00,
2013-04-10 20:21:00,80.4,59.5,29.72,SSW,199,0.0,0.0,49,0.00,,,0.00,0.00,VWS V14.01,2013-04-11 00:21:00,
2013-04-10 20:26:00,80.3,59.4,29.72,SSW,199,0.0,0.0,49,0.00,,,0.00,0.00,VWS V14.01,2013-04-11 00:26:00,
2013-04-10 20:32:00,80.1,59.2,29.73,SSW,199,0.0,0.0,49,0.00,,,0.00,0.00,VWS V14.01,2013-04-11 00:32:00,
2013-04-10 20:37:00,79.9,59.6,29.73,SSW,199,0.0,0.0,50,0.00,,,0.00,0.00,VWS V14.01,2013-04-11 00:37:00,
2013-04-10 20:42:00,79.8,59.5,29.73,SSW,199,0.0,0.0,50,0.00,,,0.00,0.00,VWS V14.01,2013-04-11 00:42:00,
2013-04-10 20:47:00,79.6,59.3,29.73,SSW,199,0.0,0.0,50,0.00,,,0.00,0.00,VWS V14.01,2013-04-11 00:47:00,
2013-04-10 20:52:00,79.3,59.6,29.73,SSW,198,0.0,0.0,51,0.00,,,0.00,0.00,VWS V14.01,2013-04-11 00:52:00,
2013-04-10 20:57:00,79.1,59.4,29.73,SSW,198,0.0,0.0,51,0.00,,,0.00,0.00,VWS V14.01,2013-04-11 00:57:00,
2013-04-10 21:02:00,78.7,59.1,29.74,SSW,198,0.0,0.0,51,0.00,,,0.00,0.00,VWS V14.01,2013-04-11 01:02:00,
2013-04-10 21:07:00,78.6,59.5,29.74,SSW,199,0.0,1.0,52,0.00,,,0.00,0.00,VWS V14.01,2013-04-11 01:07:00,
2013-04-10 21:12:00,78.3,59.8,29.74,SSW,198,0.0,0.0,53,0.00,,,0.00,0.00,VWS V14.01,2013-04-11 01:12:00,
2013-04-10 21:17:00,78.1,59.6,29.74,SSW,199,0.0,0.0,53,0.00,,,0.00,0.00,VWS V14.01,2013-04-11 01:17:00,
2013-04-10 21:22:00,77.9,59.4,29.75,SSW,199,0.0,0.0,53,0.00,,,0.00,0.00,VWS V14.01,2013-04-11 01:22:00,
2013-04-10 21:27:00,77.8,59.3,29.75,SSW,198,0.0,0.0,53,0.00,,,0.00,0.00,VWS V14.01,2013-04-11 01:27:00,
2013-04-10 21:32:00,77.6,59.7,29.75,NW,324,0.0,0.0,54,0.00,,,0.00,0.00,VWS V14.01,2013-04-11 01:32:00,
2013-04-10 21:38:00,77.3,59.9,29.75,NW,324,0.0,0.0,55,0.00,,,0.00,0.00,VWS V14.01,2013-04-11 01:38:00,
2013-04-10 21:43:00,77.2,59.8,29.75,NW,323,0.0,0.0,55,0.00,,,0.00,0.00,VWS V14.01,2013-04-11 01:43:00,
2013-04-10 21:48:00,77.1,59.7,29.75,NW,324,0.0,0.0,55,0.00,,,0.00,0.00,VWS V14.01,2013-04-11 01:48:00,
2013-04-10 21:53:00,77.0,59.6,29.75,NW,324,0.0,0.0,55,0.00,,,0.00,0.00,VWS V14.01,2013-04-11 01:53:00,
2013-04-10 21:58:00,76.9,59.5,29.75,NW,323,0.0,0.0,55,0.00,,,0.00,0.00,VWS V14.01,2013-04-11 01:58:00,
2013-04-10 22:03:00,76.7,59.8,29.75,NW,323,0.0,0.0,56,0.00,,,0.00,0.00,VWS V14.01,2013-04-11 02:03:00,
2013-04-10 22:08:00,76.6,59.8,29.75,NW,324,0.0,0.0,56,0.00,,,0.00,0.00,VWS V14.01,2013-04-11 02:08:00,
2013-04-10 22:13:00,76.4,59.6,29.75,NW,324,0.0,0.0,56,0.00,,,0.00,0.00,VWS V14.01,2013-04-11 02:13:00,
2013-04-10 22:18:00,76.2,59.4,29.75,NW,324,0.0,0.0,56,0.00,,,0.00,0.00,VWS V14.01,2013-04-11 02:18:00,
2013-04-10 22:23:00,76.0,59.7,29.75,NW,324,0.0,0.0,57,0.00,,,0.00,0.00,VWS V14.01,2013-04-11 02:23:00,
2013-04-10 22:28:00,75.7,59.4,29.75,NW,324,0.0,0.0,57,0.00,,,0.00,0.00,VWS V14.01,2013-04-11 02:28:00,
2013-04-10 22:33:00,75.5,59.7,29.75,NW,324,0.0,0.0,58,0.00,,,0.00,0.00,VWS V14.01,2013-04-11 02:33:00,
2013-04-10 22:38:00,75.2,59.4,29.75,NW,323,0.0,0.0,58,0.00,,,0.00,0.00,VWS V14.01,2013-04-11 02:38:00,
2013-04-10 22:43:00,74.9,59.1,29.76,NW,324,1.0,1.0,58,0.00,,,0.00,0.00,VWS V14.01,2013-04-11 02:43:00,
2013-04-10 22:49:00,74.7,59.4,29.77,NNE,26,1.0,8.0,59,0.00,,,0.00,0.00,VWS V14.01,2013-04-11 02:49:00,
2013-04-10 22:54:00,74.4,59.2,29.78,NNE,16,3.0,9.0,59,0.00,,,0.00,0.00,VWS V14.01,2013-04-11 02:54:00,
2013-04-10 22:59:00,74.1,59.3,29.78,ENE,61,0.0,7.0,60,0.00,,,0.00,0.00,VWS V14.01,2013-04-11 02:59:00,
2013-04-10 23:04:00,73.7,59.0,29.79,North,360,1.0,8.0,60,0.00,,,0.00,0.00,VWS V14.01,2013-04-11 03:04:00,
2013-04-10 23:09:00,73.3,58.6,29.79,NNE,28,1.0,7.0,60,0.00,,,0.00,0.00,VWS V14.01,2013-04-11 03:09:00,
2013-04-10 23:14:00,72.9,58.7,29.80,ENE,66,1.0,5.0,61,0.00,,,0.00,0.00,VWS V14.01,2013-04-11 03:14:00,
2013-04-10 23:20:00,72.6,58.4,29.80,North,9,3.0,7.0,61,0.00,,,0.00,0.00,VWS V14.01,2013-04-11 03:20:00,
2013-04-10 23:25:00,72.3,58.1,29.80,NNE,17,0.0,6.0,61,0.00,,,0.00,0.00,VWS V14.01,2013-04-11 03:25:00,
2013-04-10 23:30:00,72.1,57.9,29.81,North,5,0.0,6.0,61,0.00,,,0.00,0.00,VWS V14.01,2013-04-11 03:30:00,
2013-04-10 23:35:00,71.8,58.1,29.82,North,5,0.0,5.0,62,0.00,,,0.00,0.00,VWS V14.01,2013-04-11 03:35:00,
2013-04-10 23:40:00,71.6,57.9,29.83,North,355,5.0,9.0,62,0.00,,,0.00,0.00,VWS V14.01,2013-04-11 03:40:00,
2013-04-10 23:45:00,71.3,58.1,29.85,NNE,27,8.0,12.0,63,0.00,,,0.00,0.00,VWS V14.01,2013-04-11 03:45:00,
2013-04-10 23:50:00,71.1,57.9,29.85,NNE,18,5.0,10.0,63,0.00,,,0.00,0.00,VWS V14.01,2013-04-11 03:50:00,
2013-04-10 23:55:00,71.0,58.2,29.85,NNE,17,2.0,11.0,64,0.00,,,0.00,0.00,VWS V14.01,2013-04-11 03:55:00,